NOAA-19
1 33591U 09005A 10041.85736897 -.00000128 00000-0 -47035-4 0 04377
2 33591 098.7756 346.7460 0013343 289.3253 070.6483 14.11023106052094
HUBBLE
1 20580U 90037B 10042.17471048 .00000446 00000-0 21339-4 0 5153
2 20580 028.4707 342.4565 0003224 297.8634 062.1676 15.00891604885793
ISS
1 25544U 98067A 10042.75330333 -.00001711 00000-0 -66016-5 0 5659
2 25544 051.6452 154.6505 0011053 318.5383 197.9759 15.75838130643711
CO-58
1 28895U 05043F 10041.73094779 .00000093 00000-0 28881-4 0 05119
2 28895 098.0327 290.2690 0017308 324.6028 035.4022 14.59843440228533
FALCON
1 30776U 07006E 10041.52024305 .00000634 00000-0 48629-4 0 07717
2 30776 035.4330 093.2019 0000414 239.0767 120.9909 15.03453757160984
MAST
1 31126U 07012K 10041.69968509 -.00000043 00000-0 98731-6 0 07979
2 31126 097.9565 090.1467 0093653 259.2036 099.8618 14.53551043149686
CAPE1
1 31130U 07012P 10041.69725349 .00000395 00000-0 10210-3 0 08138
2 31130 097.9550 087.8081 0101693 266.4860 092.4689 14.52132920149303
COMPASS
1 32787U 08021E 10041.28818939 .00000685 00000-0 93461-4 0 05949
2 32787 097.9094 107.7109 0015355 342.3060 017.7622 14.81754304096703
AAUSAT2
1 32788U 08021F 10041.70830486 .00000146 00000-0 25122-4 0 05882
2 32788 097.9106 108.2282 0015031 342.5027 017.5644 14.81885974096779
DO-64
1 32789U 08021G 10041.79385276 .00000307 00000-0 45404-4 0 6036
2 32789 097.9153 108.6550 0015238 339.9445 020.1175 14.81951086 96785
CO-66
1 32791U 08021J 10042.23804641 .00000480 00000-0 67800-4 0 5834
2 32791 097.9114 108.6765 0015616 337.6104 022.4401 14.81561429 96808
RS-30
1 32953U 08025A 10042.72674787 .00000010 00000-0 00000 0 0 5235
2 32953 082.5017 107.7050 0019085 020.5485 339.6363 12.43003371 78152
TACSAT-3
1 35001U 09028A 10041.94383022 .00004252 00000-0 10827-3 0 02295
2 35001 040.4550 251.6613 0021132 139.9637 220.2741 15.40224243041156
PHARMSAT
1 35002U 09028B 10041.94579364 .00004334 00000-0 10765-3 0 02148
2 35002 040.4685 250.1681 0024015 144.8550 215.3855 15.40893858041163
HAWKSAT1
1 35003U 09028C 10041.92470920 .00008324 00000-0 19089-3 0 02180
2 35003 040.4603 248.0010 0022898 152.3926 207.8111 15.42508418041195
CP6
1 35004U 09028D 10041.90604571 .00009655 00000-0 21811-3 0 02128
2 35004 040.4595 247.8706 0022379 152.5916 207.6086 15.42840241041181
AEROCUB3
1 35005U 09028E 10042.83400969 .00020704 00000-0 45196-3 0 2138
2 35005 040.4684 242.8755 0020218 157.3921 202.7789 15.43455333 41326
DRAGNSAT
1 35690U 09038B 10042.65630175 .00154354 21148-4 30386-3 0 2452
2 35690 051.6334 137.3604 0002758 035.3943 324.7254 15.99735782 31153
POLLUX
1 35693U 09038E 10042.74422212 .00086672 14264-4 20946-3 0 2488
2 35693 051.6385 138.7650 0003587 061.3151 298.8272 15.96372977 31116
CASTOR
1 35694U 09038F 10042.50519728 .00033409 00000-0 12913-3 0 1889
2 35694 051.6392 144.8086 0003702 055.3990 304.7530 15.86917423 31012
METEOR-M
1 35865U 09049A 10042.09857683 .00000176 00000-0 10000-3 0 1240
2 35865 098.7768 096.6983 0002932 026.4040 333.7262 14.21828617 20803
RS-38
1 35869U 09049E 10042.36481610 .00000176 00000-0 10000-3 0 1270
2 35869 098.7776 096.9842 0004993 018.5817 341.5529 14.21975152 20840
